Home   Weather   Campbelltown   Past weeks

Flag for Australia Past Weather in Campbelltown, New South Wales, Australia — Yesterday and Last 2 Weeks

Now
46 °F

Cool.


Feels Like: 43 °F
Forecast: 48 / 64 °F
Wind: 7 mph from Southwest

Location: Camden Airport

Current Time: Apr 27, 2017 at 7:42:19 am

Latest Report: Apr 27, 2017 at 6:00 am


Visibility: N/A

Pressure: 29.93 "Hg

Humidity: 75%

Dew Point: 38 °F

Location of CampbelltownLocation

Past Weather in Campbelltown — Graph

°F

Campbelltown Temperature Yesterday

Maximum temperature yesterday: 74 °F (at 12:00 pm)
Minimum temperature yesterday: 51 °F (at 6:00 am)
Average temperature yesterday: 59 °F

High & Low Weather Summary for the Past Weeks

 TemperatureHumidityPressure
High78 °F (Apr 16, 2:00 pm)100% (Apr 14, 6:00 am)30.45 "Hg (Apr 14, 6:00 am)
Low46 °F (Apr 27, 6:00 am)30% (Apr 14, 2:00 pm)29.63 "Hg (Apr 26, 12:00 pm)
Average62 °F78%30.16 "Hg
* Reported Apr 12 6:00 am — Apr 27 6:00 am, Campbelltown, Weather by CustomWeather, © 2017

Note: Actual official high and low records may vary slightly from our data, if they occured in-between our weather recording intervals... More about our weather records

Advertising

Campbelltown Weather History for the Previous 24 Hours

Scroll right to see more
 ConditionsComfort  
Time TempWeatherWind HumidityBarometerVisibility
6:00 am
Thu, Apr 27
46 °FCool.7 mph75%29.93 "HgN/A
5:00 am47 °FCool.6 mph75%29.91 "HgN/A
3:00 am53 °FCool.7 mph55%29.89 "HgN/A
2:00 am54 °FCool.8 mph57%29.89 "HgN/A
12:00 am57 °FOvercast.7 mph61%29.87 "HgN/A
11:00 pm
Wed, Apr 26
58 °FCool.8 mph61%29.85 "HgN/A
9:00 pm57 °FPassing clouds.9 mph59%29.82 "HgN/A
8:00 pm56 °FCool.7 mph61%29.79 "HgN/A
6:00 pm56 °FCool.9 mph60%29.72 "HgN/A
5:00 pm59 °FCool.No wind64%29.68 "HgN/A
3:00 pm56 °FOvercast.7 mph74%29.70 "HgN/A
2:00 pm60 °FRefreshingly cool.33 mph54%29.66 "HgN/A
12:00 pm74 °FScattered clouds.15 mph36%29.63 "HgN/A
11:00 am72 °FMild.14 mph38%29.67 "HgN/A
9:00 am65 °FMild.1 mph71%29.72 "HgN/A
8:00 am55 °FCool.No wind99%29.72 "HgN/A
Weather by CustomWeather, © 2017

See weather overviewHow to use our weather pages